"Pseudo-MPEC" for P110LJd

Created 2020 May 23 13:07:21 UT using Find_Orb

Click here for an explanation of pseudo-MPECs

 
 Astrometry: 
     P110LJd  C2020 05 21?GL+Qp@ZQtAstrometryT?MX26/XXX_lZtFHe!7*=6Sg0h^B^fTJF51
     P110LJd  C2020 05 21)5v]th].)0'*Hf-eV:S@(K$$cjY4Gw=\M0p]2gNnKPZ2pj'#0/NhF51
     P110LJd  C2020 05 2148YGLZxC%wLu4DbUL0'#Dms4tvD*$2rpEsredacted;vYq?uvp!LF51
     P110LJd  C2020 05 21+yh`LxA)Bclick5V0/,.m0t?'t8WScwO`G*fR*.m0,49(hereIo8F51
     P110LJd KC2020 05 223!etFln8$H!Q[\UejHuP6hX:]JM^J-$DSJmFN;H)l,'amDcBty1RH21
     P110LJd KC2020 05 229HVfor@aZNeX[5K'df)mexplanation2Gy:!:aE#]?WnKJq[kX;?H21
     P110LJd KC2020 05 22Ct2E\vfeDRgCFB^-B;k;L9gwdhBa?l;Rkw(1=Ld^JdZbr#=P0_'uH21
     P110LJd  C2020 05 22.30227 16 46 00.60 -03 42 18.3    ~5M7q       VNEOCPV06
     P110LJd  C2020 05 22.30465 16 46 00.33 -03 42 15.0    ~5M7q 21.8 GVNEOCPV06
     P110LJd  C2020 05 22.30703 16 46 00.13 -03 42 13.0    ~5M7q 21.5 GVNEOCPV06
     P110LJd  C2020 05 22.30941 16 45 59.96 -03 42 10.0    ~5M7q 21.9 GVNEOCPV06
     P110LJd  C2020 05 23.33800 16 44 42.50 -03 24 07.3    ~5N8b 22.1 GVNEOCPV06
     P110LJd  C2020 05 23.34117 16 44 42.24 -03 24 03.8    ~5N8b 22.6 GVNEOCPV06
     P110LJd  C2020 05 23.34433 16 44 42.00 -03 24 00.8    ~5N8b 21.7 GVNEOCPV06
     P110LJd  C2020 05 23.34750 16 44 41.75 -03 23 57.6    ~5N8b 22.6 GVNEOCPV06

Station data:
(F51) Pan-STARRS 1, Haleakala  (N20.707235 W156.255910)  US/Hawaii.
   Observers N. Primak, A. Schultz, S. Watters, J. Thiel, T. Goggia. Measurer
   PS1 Science Consortium. 1.8-m Ritchey-Chrétien + CCD.
(H21) Astronomical Research Observatory, Westfield  (N39.483057 W87.968270)
   US/Illinois. 0.76-m f/3.0 astrograph + CCD.
(V06) Catalina Sky Survey-Kuiper  (N32.416847 W110.732550)  US/Arizona.
   Observers T. A. Pruyne, B. M. Africano, E. J. Christensen, G. A. Farneth,
   D. C. Fuls, A. R. Gibbs, A. D. Grauer, H. Gröller, J. A. Johnson, R. A.
   Kowalski, S. M. Larson, G. J. Leonard, D. Rankin, R. L. Seaman, F. C.
   Shelly. 1.55-m reflector + CCD.

Orbital elements:  P110LJd
   Perihelion 2019 Sep 24.355985 +/- 12.5 TT =  8:32:37 (JD 2458750.855985)
Epoch 2020 May 23.0 TT = JDT 2458992.5   Earth MOID: 0.6510   AutoNEOCP
M  95.73119236 +/- 5.1              (J2000 ecliptic)
n   0.39616620 +/- 0.00912          Peri.  268.59954 +/- 4.1
a   1.83604969 +/- 0.0282           Node   222.08002 +/- 0.9
e   0.1937477 +/- 0.0128            Incl.   21.57462 +/- 1.0
P   2.49/908.69d           H 20.2   G  0.15   U  9.6  
q 1.48031911 +/- 0.0101    Q 2.19178028 +/- 0.0549
From 15 observations 2020 May 21-23 (45.6 hr); mean residual 0".30
Residuals in arcseconds: 
200521 F51  .03+  .16-    200522 H21  .05-  .03+    200522 V06  .05+  .27+    
200521 F51  .10-  .02-    200522 H21  .09-  .01-    200523 V06  .04+  .03+    
200521 F51  .11+  .18+    200522 V06  1.3+  .45-    200523 V06  .12-  .22+    
200521 F51  .02-  .03-    200522 V06  .01+  .32+    200523 V06  .01+  .08-    
200522 H21  .60-  .07+    200522 V06  .20-  .21-    200523 V06  .00   .19-    

Ephemerides (geocentric):
Date (UTC) HH   RA              Dec         delta   r     elong  mag " sig PA
---- -- -- --  -------------   -----------  ------ ------ -----  --- ---- ---
2020 05 23 13  16 44 27.138   -03 20 29.79  .95531 1.9376 159.8 22.2 .129  96
2020 05 23 14  16 44 23.992   -03 19 46.49  .95537 1.9377 159.8 22.2 .138  85
2020 05 23 15  16 44 20.845   -03 19 03.21  .95542 1.9378 159.8 22.2 .153  76
2020 05 23 16  16 44 17.698   -03 18 19.97  .95548 1.9379 159.9 22.2 .172  68
2020 05 23 17  16 44 14.550   -03 17 36.76  .95553 1.9379 159.9 22.2 .194  61
2020 05 23 18  16 44 11.401   -03 16 53.59  .95559 1.9380 159.9 22.2 .219  56
2020 05 23 19  16 44 08.252   -03 16 10.44  .95565 1.9381 159.9 22.2 .247  51
2020 05 23 20  16 44 05.103   -03 15 27.33  .95571 1.9382 159.9 22.2 .276  48
2020 05 23 21  16 44 01.952   -03 14 44.25  .95577 1.9383 159.9 22.2 .308  45
2020 05 23 22  16 43 58.802   -03 14 01.21  .95582 1.9384 159.9 22.2 .341  42
2020 05 23 23  16 43 55.650   -03 13 18.19  .95588 1.9385 159.9 22.2 .375  40
2020 05 24 00  16 43 52.498   -03 12 35.21  .95594 1.9386 159.9 22.2 .411  38
2020 05 24 01  16 43 49.346   -03 11 52.27  .95600 1.9387 159.9 22.2 .448  37
2020 05 24 02  16 43 46.193   -03 11 09.35  .95606 1.9388 160.0 22.2 .486  35
2020 05 24 03  16 43 43.040   -03 10 26.47  .95613 1.9389 160.0 22.2 .526  34
2020 05 24 04  16 43 39.886   -03 09 43.62  .95619 1.9390 160.0 22.2 .566  33
2020 05 24 05  16 43 36.731   -03 09 00.81  .95625 1.9391 160.0 22.2 .608  32
2020 05 24 06  16 43 33.576   -03 08 18.03  .95631 1.9392 160.0 22.2 .651  31
2020 05 24 07  16 43 30.421   -03 07 35.28  .95637 1.9393 160.0 22.2 .696  31
2020 05 24 08  16 43 27.265   -03 06 52.57  .95644 1.9393 160.0 22.2 .741  30
2020 05 24 09  16 43 24.108   -03 06 09.88  .95650 1.9394 160.0 22.2 .787  29
2020 05 24 10  16 43 20.952   -03 05 27.24  .95656 1.9395 160.0 22.2 .835  29
2020 05 24 11  16 43 17.794   -03 04 44.62  .95663 1.9396 160.0 22.2 .883  28
2020 05 24 12  16 43 14.637   -03 04 02.04  .95669 1.9397 160.0 22.2 .933  28
2020 05 24 13  16 43 11.479   -03 03 19.50  .95676 1.9398 160.0 22.2 .984  27
2020 05 24 14  16 43 08.320   -03 02 36.99  .95682 1.9399 160.0 22.2 1.04  27
2020 05 24 15  16 43 05.161   -03 01 54.51  .95689 1.9400 160.0 22.2 1.09  26
2020 05 24 16  16 43 02.002   -03 01 12.06  .95696 1.9401 160.1 22.2 1.14  26
2020 05 24 17  16 42 58.842   -03 00 29.65  .95702 1.9402 160.1 22.2 1.20  25
2020 05 24 18  16 42 55.682   -02 59 47.27  .95709 1.9403 160.1 22.2 1.25  25
2020 05 24 19  16 42 52.521   -02 59 04.93  .95716 1.9404 160.1 22.2 1.31  25
2020 05 24 20  16 42 49.360   -02 58 22.62  .95723 1.9405 160.1 22.2 1.37  25
2020 05 24 21  16 42 46.199   -02 57 40.35  .95730 1.9405 160.1 22.2 1.43  24
2020 05 24 22  16 42 43.037   -02 56 58.11  .95737 1.9406 160.1 22.2 1.49  24
2020 05 24 23  16 42 39.875   -02 56 15.91  .95744 1.9407 160.1 22.2 1.55  24
2020 05 25 00  16 42 36.713   -02 55 33.73  .95751 1.9408 160.1 22.2 1.61  23
2020 05 25 01  16 42 33.550   -02 54 51.60  .95758 1.9409 160.1 22.2 1.67  23
2020 05 25 02  16 42 30.387   -02 54 09.50  .95765 1.9410 160.1 22.2 1.74  23
2020 05 25 03  16 42 27.224   -02 53 27.43  .95772 1.9411 160.1 22.2 1.80  23
2020 05 25 04  16 42 24.061   -02 52 45.40  .95779 1.9412 160.1 22.2 1.87  23
2020 05 25 05  16 42 20.897   -02 52 03.40  .95786 1.9413 160.1 22.2 1.94  22
2020 05 25 06  16 42 17.733   -02 51 21.44  .95793 1.9414 160.1 22.2 2.01  22
2020 05 25 07  16 42 14.568   -02 50 39.51  .95801 1.9415 160.1 22.2 2.08  22
2020 05 25 08  16 42 11.403   -02 49 57.62  .95808 1.9416 160.1 22.2 2.15  22
2020 05 25 09  16 42 08.238   -02 49 15.76  .95815 1.9417 160.1 22.2 2.22  22
2020 05 25 10  16 42 05.073   -02 48 33.94  .95823 1.9418 160.2 22.2 2.29  21
2020 05 25 11  16 42 01.908   -02 47 52.15  .95830 1.9418 160.2 22.2 2.37  21
2020 05 25 12  16 41 58.742   -02 47 10.40  .95838 1.9419 160.2 22.2 2.44  21